Weather in Marusino

Russia / Khabarovsk Krai     47°58′16″N   135°27′51″E
temp.,
°C
wind,
m/s
gust,
m/s
humid.,
%
clouds,
%
prec.,
mm/h
press.,
hPa
HPBL,
m
7 march, sun
sun701:00−19sw510860 0.0 1030274
04:00−19ssw4109622 0.0 1029251
07:00−20ssw5109699 0.0 1028308
10:00−15sw5118399 0.0 1027570
13:00−11sw61074100 0.0 1025910
16:00−9wsw597499 0.0 1023766
19:00−11sw3787100 0.0 1023228
22:00−13sw359194 0.0 1024135
8 march, mon
mon801:00−13sw369689 0.3 1023160
04:00−15sw489791 0.3 1024190
07:00−16ssw499881 0.0 1025218
10:00−13sw598877 0.0 1026410
13:00−10sw698263 0.0 1026542
16:00−8sw5107732 0.0 1024615
19:00−11sw410890 0.0 1024266
22:00−12ssw35930 0.0 1025102
9 march, tue
tue901:00−10s4108897 0.0 1023284
04:00−9s5138397 0.0 1020323
07:00−10s4118265 0.0 1017285
10:00−5s5117650 0.0 1014497
13:000ssw610723 0.0 1010909
16:000sw5108849 0.1 1008999
19:00−4wsw5119498 0.6 1008470
22:00−5w499698 0.9 1010330
10 march, wed
wed1001:00−6nnw4995100 1.0 1013417
04:00−10nw239596 1.1 101778
07:00−11sw2394100 0.0 102260
10:00−10sw478695 0.0 1024271
13:00−6sw58790 0.0 1024464
16:00−5wsw59780 0.0 1024523
19:00−7sw499131 0.0 1024240
22:00−6ssw498666 0.0 1025309
11 march, thu
thu1101:00−7ssw3986100 0.0 1025214
04:00−6sw41186100 0.0 1023456
07:00−9sw499125 0.0 1024221
10:00−7sw588713 0.0 1025343
13:00−4sw468671 0.0 1026422
16:00−3wsw468673 0.0 1026481
19:00−7sw239443 0.0 102731
22:00−8ssw239358 0.0 102941